TimeEET,TemperatureF,Dew PointF,Humidity,Sea Level PressureIn,VisibilityMPH,Wind Direction,Wind SpeedMPH,Gust SpeedMPH,PrecipitationIn,Events,Conditions,WindDirDegrees,DateUTC
1:00 AM,71.6,41.0,33,29.77,-9999.0,Calm,Calm,-,N/A,,Clear,0,2013-11-07 23:00:00
2:00 AM,72,48,31,29.79,6,NNW,12.7,,,,,330,2013-11-08 00:00:00
3:00 AM,73.4,55.4,53,29.80,-9999.0,NNW,15.0,-,N/A,,Clear,340,2013-11-08 01:00:00
4:00 AM,71.6,50.0,46,29.80,-9999.0,NW,11.5,-,N/A,,Clear,310,2013-11-08 02:00:00
5:00 AM,71.6,50.0,46,29.80,-9999.0,NW,12.7,-,N/A,,Clear,310,2013-11-08 03:00:00
6:00 AM,69.8,48.2,46,29.80,-9999.0,NW,9.2,-,N/A,,Clear,310,2013-11-08 04:00:00
7:00 AM,71.6,46.4,41,29.83,-9999.0,NW,9.2,-,N/A,,Clear,310,2013-11-08 05:00:00
8:00 AM,74,48,29,29.84,6,WNW,9.2,,,,,300,2013-11-08 06:00:00
8:00 AM,73.4,48.2,41,29.83,-9999.0,WNW,9.2,-,N/A,,Clear,300,2013-11-08 06:00:00
9:00 AM,77.0,53.6,44,29.83,-9999.0,NNW,11.5,-,N/A,,Clear,330,2013-11-08 07:00:00
10:00 AM,82.4,50.0,32,29.83,-9999.0,NNW,12.7,-,N/A,,Clear,340,2013-11-08 08:00:00
11:00 AM,84.2,53.6,35,29.80,-9999.0,North,11.5,-,N/A,,Clear,350,2013-11-08 09:00:00
1:00 PM,89.6,66.2,46,29.77,-9999.0,North,4.6,-,N/A,,Clear,360,2013-11-08 11:00:00
2:00 PM,88,66,39,29.76,6,NNE,5.8,,,,,20,2013-11-08 12:00:00
2:00 PM,87.8,66.2,49,29.74,-9999.0,NNE,5.8,-,N/A,,Clear,20,2013-11-08 12:00:00
3:00 PM,86.0,64.4,48,29.74,-9999.0,NNE,6.9,-,N/A,,Clear,20,2013-11-08 13:00:00
4:00 PM,84.2,62.6,48,29.74,-9999.0,Calm,Calm,-,N/A,,Clear,0,2013-11-08 14:00:00
5:00 PM,80.6,59.0,48,29.77,-9999.0,Calm,Calm,-,N/A,,Clear,0,2013-11-08 15:00:00
7:00 PM,77.0,60.8,57,29.80,-9999.0,Calm,Calm,-,N/A,,Clear,0,2013-11-08 17:00:00
8:00 PM,75,57,43,29.82,6,Calm,Calm,,,,,,2013-11-08 18:00:00
8:00 PM,75.2,57.2,53,29.80,-9999.0,Calm,Calm,-,N/A,,Clear,0,2013-11-08 18:00:00
9:00 PM,73.4,50.0,44,29.83,-9999.0,NW,4.6,-,N/A,,Clear,320,2013-11-08 19:00:00
10:00 PM,73.4,50.0,44,29.83,-9999.0,NW,11.5,-,N/A,,Clear,310,2013-11-08 20:00:00
11:00 PM,73.4,50.0,44,29.83,-9999.0,WNW,8.1,-,N/A,,Clear,300,2013-11-08 21:00:00